| time (UTC) | temp F | wind direction | speed MPH | gust MPH | rain 1hr in | rain 24hr in | rain mn in | humidity % | barometer mb |
| 20260831004011 | 83 | 255 | 0.0 | 2.0 | 0.00 | 0.07 | 0.07 | 70 | 1005.1 |
| 20260831003515 | 84 | 255 | 0.0 | 2.0 | 0.00 | 0.07 | 0.07 | 69 | 1005.3 |
| 20260831003033 | 84 | 259 | 0.0 | 2.0 | 0.00 | 0.07 | 0.07 | 69 | 1000.7 |
| 20260831003030 | 84 | 259 | 1.0 | 2.0 | 0.00 | 0.07 | 0.07 | 68 | 1005.4 |
| 20260831002511 | 85 | 258 | 1.0 | 2.0 | 0.00 | 0.07 | 0.07 | 67 | 1005.5 |
| 20260831002014 | 85 | 264 | 1.0 | 2.0 | 0.00 | 0.07 | 0.07 | 66 | 1005.6 |
| 20260831001530 | 86 | 258 | 1.0 | 3.0 | 0.00 | 0.07 | 0.07 | 67 | 1001.1 |
| 20260831001012 | 86 | 253 | 1.0 | 3.0 | 0.00 | 0.07 | 0.07 | 66 | 1005.7 |
| 20260831000516 | 86 | 256 | 2.0 | 3.0 | 0.00 | 0.07 | 0.07 | 65 | 1005.8 |
| 20260831000031 | 86 | 243 | 1.0 | 3.0 | 0.00 | 0.07 | 0.07 | 65 | 1005.7 |
| 20260831000029 | 86 | 243 | 1.0 | 3.0 | 0.00 | 0.07 | 0.07 | 66 | 1001.1 |
| 20260830235505 | 87 | 231 | 1.0 | 3.0 | 0.00 | 0.07 | 0.07 | 64 | 1005.8 |
| 20260830235007 | 86 | 257 | 1.0 | 4.0 | 0.00 | 0.07 | 0.07 | 65 | 1005.8 |
| 20260830234528 | 86 | 252 | 1.0 | 4.0 | 0.00 | 0.07 | 0.07 | 66 | 1001.3 |
| 20260830234515 | 86 | 281 | 2.0 | 4.0 | 0.00 | 0.07 | 0.07 | 66 | 1005.9 |
| 20260830234008 | 86 | 260 | 2.0 | 4.0 | 0.00 | 0.07 | 0.07 | 65 | 1006.0 |
| 20260830233509 | 86 | 264 | 2.0 | 5.0 | 0.00 | 0.07 | 0.07 | 65 | 1006.1 |
| 20260830233030 | 86 | 260 | 3.0 | 5.0 | 0.00 | 0.07 | 0.07 | 64 | 1006.1 |
| 20260830232512 | 87 | 259 | 2.0 | 5.0 | 0.00 | 0.07 | 0.07 | 65 | 1006.1 |
| 20260830232012 | 87 | 252 | 2.0 | 5.0 | 0.00 | 0.07 | 0.07 | 63 | 1006.1 |
| 20260830231528 | 87 | 265 | 2.0 | 5.0 | 0.00 | 0.07 | 0.07 | 62 | 1001.2 |
| 20260830231012 | 87 | 274 | 2.0 | 4.0 | 0.00 | 0.07 | 0.07 | 62 | 1005.7 |
| 20260830230513 | 87 | 236 | 0.0 | 5.0 | 0.00 | 0.07 | 0.07 | 64 | 1005.7 |
| 20260830230029 | 86 | 264 | 2.0 | 6.0 | 0.00 | 0.07 | 0.07 | 63 | 1005.7 |
| 20260830230025 | 86 | 255 | 1.0 | 5.0 | 0.00 | 0.07 | 0.07 | 64 | 1001.2 |
| 20260830225515 | 86 | 259 | 3.0 | 6.0 | 0.00 | 0.07 | 0.07 | 67 | 1005.8 |
| 20260830225013 | 87 | 278 | 1.0 | 5.0 | 0.00 | 0.07 | 0.07 | 67 | 1005.9 |
| 20260830224532 | 87 | 229 | 2.0 | 5.0 | 0.00 | 0.07 | 0.07 | 66 | 1006.0 |
| 20260830224525 | 87 | 271 | 1.0 | 5.0 | 0.00 | 0.07 | 0.07 | 67 | 1001.4 |
| 20260830224005 | 86 | 250 | 3.0 | 8.0 | 0.00 | 0.07 | 0.07 | 64 | 1006.1 |
| 20260830223507 | 86 | 238 | 3.0 | 8.0 | 0.00 | 0.07 | 0.07 | 64 | 1006.1 |
| 20260830223036 | 86 | 236 | 3.0 | 8.0 | 0.00 | 0.07 | 0.07 | 63 | 1006.2 |
| 20260830223031 | 86 | 260 | 4.0 | 8.0 | 0.00 | 0.07 | 0.07 | 62 | 1001.5 |
| 20260830222509 | 86 | 226 | 3.0 | 8.0 | 0.00 | 0.07 | 0.07 | 62 | 1006.3 |
| 20260830222013 | 86 | 237 | 4.0 | 9.0 | 0.00 | 0.07 | 0.07 | 62 | 1006.2 |
| 20260830221527 | 87 | 235 | 4.0 | 9.0 | 0.00 | 0.07 | 0.07 | 60 | 1006.3 |
| 20260830221524 | 87 | 243 | 3.0 | 9.0 | 0.00 | 0.07 | 0.07 | 62 | 1001.5 |
| 20260830221012 | 87 | 228 | 4.0 | 9.0 | 0.00 | 0.07 | 0.07 | 60 | 1006.3 |
| 20260830220513 | 87 | 214 | 5.0 | 9.0 | 0.00 | 0.07 | 0.07 | 60 | 1006.2 |
| 20260830220033 | 87 | 214 | 5.0 | 10.0 | 0.00 | 0.07 | 0.07 | 60 | 1006.1 |
| 20260830220028 | 87 | 245 | 4.0 | 10.0 | 0.00 | 0.07 | 0.07 | 61 | 1001.3 |
| 20260830215516 | 87 | 238 | 4.0 | 10.0 | 0.00 | 0.07 | 0.07 | 62 | 1006.0 |
| 20260830215016 | 87 | 186 | 5.0 | 10.0 | 0.00 | 0.07 | 0.07 | 61 | 1006.0 |
| 20260830214535 | 87 | 226 | 4.0 | 11.0 | 0.00 | 0.07 | 0.07 | 61 | 1005.9 |
| 20260830214523 | 87 | 224 | 4.0 | 11.0 | 0.00 | 0.07 | 0.07 | 60 | 1001.4 |
| 20260830214016 | 87 | 220 | 6.0 | 11.0 | 0.00 | 0.07 | 0.07 | 60 | 1006.1 |
| 20260830213514 | 87 | 264 | 4.0 | 9.0 | 0.00 | 0.07 | 0.07 | 60 | 1006.0 |
| 20260830213032 | 87 | 223 | 4.0 | 9.0 | 0.00 | 0.07 | 0.07 | 61 | 1006.0 |
| 20260830213021 | 87 | 252 | 4.0 | 9.0 | 0.00 | 0.07 | 0.07 | 61 | 1001.3 |
| 20260830212508 | 87 | 207 | 5.0 | 10.0 | 0.00 | 0.07 | 0.07 | 62 | 1005.9 |
| 20260830212009 | 87 | 262 | 6.0 | 10.0 | 0.00 | 0.07 | 0.07 | 61 | 1005.9 |
| 20260830211521 | 87 | 227 | 5.0 | 9.0 | 0.00 | 0.07 | 0.07 | 64 | 1005.9 |
| 20260830211010 | 87 | 224 | 6.0 | 9.0 | 0.00 | 0.07 | 0.07 | 62 | 1005.9 |
| 20260830210511 | 87 | 238 | 3.0 | 8.0 | 0.00 | 0.07 | 0.07 | 63 | 1005.9 |
| 20260830210030 | 87 | 228 | 4.0 | 9.0 | 0.00 | 0.07 | 0.07 | 64 | 1005.8 |
| 20260830210018 | 87 | 205 | 4.0 | 9.0 | 0.00 | 0.07 | 0.07 | 64 | 1001.3 |
| 20260830205513 | 87 | 203 | 5.0 | 9.0 | 0.00 | 0.07 | 0.07 | 62 | 1005.8 |
| 20260830205014 | 87 | 203 | 5.0 | 9.0 | 0.00 | 0.07 | 0.07 | 63 | 1005.8 |
| 20260830204528 | 87 | 229 | 5.0 | 9.0 | 0.00 | 0.07 | 0.07 | 61 | 1005.8 |
| 20260830204517 | 88 | 189 | 5.0 | 9.0 | 0.00 | 0.07 | 0.07 | 62 | 1001.3 |
| 20260830204012 | 87 | 246 | 6.0 | 8.0 | 0.00 | 0.07 | 0.07 | 60 | 1005.9 |
| 20260830203517 | 87 | 231 | 4.0 | 7.0 | 0.00 | 0.07 | 0.07 | 63 | 1006.0 |
| 20260830203046 | 87 | 213 | 4.0 | 9.0 | 0.00 | 0.07 | 0.07 | 65 | 1006.1 |
| 20260830203015 | 87 | 222 | 3.0 | 9.0 | 0.00 | 0.07 | 0.07 | 65 | 1001.3 |
| 20260830202516 | 87 | 195 | 3.0 | 9.0 | 0.00 | 0.07 | 0.07 | 69 | 1006.1 |
| 20260830202016 | 87 | 237 | 5.0 | 10.0 | 0.00 | 0.07 | 0.07 | 66 | 1006.2 |
| 20260830201516 | 87 | 207 | 4.0 | 10.0 | 0.00 | 0.07 | 0.07 | 70 | 1006.2 |
| 20260830201513 | 87 | 243 | 4.0 | 10.0 | 0.00 | 0.07 | 0.07 | 71 | 1001.5 |
| 20260830201012 | 87 | 239 | 4.0 | 8.0 | 0.00 | 0.07 | 0.07 | 68 | 1006.2 |
| 20260830200510 | 86 | 236 | 3.0 | 8.0 | 0.00 | 0.07 | 0.07 | 72 | 1006.2 |
| 20260830200020 | 86 | 250 | 4.0 | 8.0 | 0.00 | 0.07 | 0.07 | 70 | 1006.2 |
| 20260830200013 | 86 | 222 | 3.0 | 8.0 | 0.00 | 0.07 | 0.07 | 71 | 1001.5 |
| 20260830195509 | 86 | 232 | 2.0 | 8.0 | 0.00 | 0.07 | 0.07 | 71 | 1006.4 |
| 20260830195012 | 86 | 232 | 5.0 | 10.0 | 0.00 | 0.07 | 0.07 | 72 | 1006.6 |
| 20260830194526 | 86 | 253 | 5.0 | 10.0 | 0.00 | 0.07 | 0.07 | 72 | 1006.6 |
| 20260830194511 | 86 | 236 | 4.0 | 10.0 | 0.00 | 0.07 | 0.07 | 73 | 1001.8 |
| 20260830194016 | 86 | 224 | 5.0 | 12.0 | 0.00 | 0.07 | 0.07 | 73 | 1006.5 |
| 20260830193513 | 86 | 259 | 5.0 | 12.0 | 0.00 | 0.07 | 0.07 | 71 | 1006.4 |
| 20260830193011 | 86 | 238 | 4.0 | 11.0 | 0.00 | 0.07 | 0.07 | 73 | 1001.8 |
| 20260830192505 | 87 | 231 | 5.0 | 11.0 | 0.00 | 0.07 | 0.07 | 70 | 1006.4 |
| 20260830192004 | 87 | 214 | 5.0 | 7.0 | 0.00 | 0.07 | 0.07 | 73 | 1006.4 |
| 20260830191513 | 86 | 288 | 3.0 | 7.0 | 0.00 | 0.07 | 0.07 | 68 | 1006.4 |
| 20260830191509 | 86 | 278 | 3.0 | 7.0 | 0.00 | 0.07 | 0.07 | 69 | 1001.8 |
| 20260830191007 | 86 | 252 | 3.0 | 8.0 | 0.00 | 0.07 | 0.07 | 70 | 1006.4 |
| 20260830190508 | 87 | 231 | 5.0 | 8.0 | 0.00 | 0.07 | 0.07 | 68 | 1006.4 |
| 20260830190025 | 87 | 264 | 4.0 | 7.0 | 0.00 | 0.07 | 0.07 | 69 | 1006.2 |
| 20260830190008 | 87 | 253 | 3.0 | 7.0 | 0.00 | 0.07 | 0.07 | 69 | 1001.6 |
| 20260830185508 | 87 | 259 | 3.0 | 7.0 | 0.00 | 0.07 | 0.07 | 69 | 1006.3 |
| 20260830185010 | 87 | 250 | 4.0 | 7.0 | 0.00 | 0.07 | 0.07 | 71 | 1006.2 |
| 20260830184532 | 87 | 187 | 2.0 | 4.0 | 0.00 | 0.07 | 0.07 | 71 | 1006.2 |
| 20260830184507 | 87 | 222 | 2.0 | 4.0 | 0.00 | 0.07 | 0.07 | 71 | 1001.7 |
| 20260830184011 | 87 | 148 | 2.0 | 6.0 | 0.00 | 0.07 | 0.07 | 70 | 1006.3 |
| 20260830183512 | 86 | 236 | 2.0 | 6.0 | 0.00 | 0.07 | 0.07 | 71 | 1006.3 |
| 20260830183032 | 86 | 239 | 3.0 | 6.0 | 0.00 | 0.07 | 0.07 | 70 | 1006.3 |
| 20260830183005 | 86 | 221 | 3.0 | 6.0 | 0.00 | 0.07 | 0.07 | 70 | 1001.7 |
| 20260830182513 | 86 | 217 | 3.0 | 6.0 | 0.00 | 0.07 | 0.07 | 70 | 1006.3 |
| 20260830182021 | 86 | 214 | 4.0 | 6.0 | 0.00 | 0.07 | 0.07 | 71 | 1006.3 |
| 20260830181508 | 85 | 224 | 2.0 | 7.0 | 0.00 | 0.07 | 0.07 | 70 | 1006.3 |
| 20260830181502 | 85 | 252 | 2.0 | 6.0 | 0.00 | 0.07 | 0.07 | 72 | 1001.8 |
| 20260830181004 | 86 | 206 | 3.0 | 8.0 | 0.00 | 0.07 | 0.07 | 70 | 1006.5 |
| 20260830180504 | 86 | 134 | 3.0 | 8.0 | 0.00 | 0.07 | 0.07 | 74 | 1006.6 |
| 20260830180059 | 85 | 212 | 4.0 | 8.0 | 0.00 | 0.07 | 0.07 | 71 | 1002.1 |
| 20260830180019 | 85 | 211 | 4.0 | 8.0 | 0.00 | 0.07 | 0.07 | 73 | 1006.8 |
| 20260830175508 | 85 | 155 | 4.0 | 7.0 | 0.00 | 0.07 | 0.07 | 72 | 1006.9 |
| 20260830175009 | 84 | 169 | 1.0 | 5.0 | 0.00 | 0.07 | 0.07 | 75 | 1006.9 |
| 20260830174607 | 83 | 205 | 2.0 | 6.0 | 0.00 | 0.07 | 0.07 | 74 | 1002.5 |
| 20260830174523 | 83 | 72 | 3.0 | 6.0 | 0.00 | 0.07 | 0.07 | 75 | 1006.9 |
| 20260830174008 | 83 | 83 | 3.0 | 6.0 | 0.00 | 0.07 | 0.07 | 73 | 1006.9 |
| 20260830173510 | 83 | 154 | 2.0 | 7.0 | 0.00 | 0.07 | 0.07 | 74 | 1007.1 |
| 20260830173053 | 83 | 161 | 3.0 | 8.0 | 0.00 | 0.07 | 0.07 | 75 | 1002.7 |
| 20260830173049 | 83 | 140 | 4.0 | 8.0 | 0.00 | 0.07 | 0.07 | 73 | 1007.1 |
| 20260830172515 | 83 | 148 | 4.0 | 9.0 | 0.00 | 0.07 | 0.07 | 75 | 1007.1 |
| 20260830172014 | 83 | 84 | 3.0 | 9.0 | 0.00 | 0.07 | 0.07 | 76 | 1007.0 |
| 20260830171557 | 82 | 119 | 4.0 | 10.0 | 0.00 | 0.07 | 0.07 | 77 | 1002.7 |
| 20260830171532 | 82 | 146 | 5.0 | 10.0 | 0.00 | 0.07 | 0.07 | 78 | 1007.1 |
| 20260830171016 | 81 | 146 | 5.0 | 10.0 | 0.00 | 0.07 | 0.07 | 77 | 1007.0 |
| 20260830170514 | 81 | 106 | 5.0 | 10.0 | 0.00 | 0.07 | 0.07 | 78 | 1007.0 |
| 20260830170045 | 80 | 172 | 6.0 | 10.0 | 0.00 | 0.07 | 0.07 | 80 | 1002.5 |
| 20260830170008 | 80 | 92 | 6.0 | 10.0 | 0.00 | 0.07 | 0.07 | 80 | 1007.0 |
| 20260830165503 | 79 | 54 | 6.0 | 10.0 | 0.00 | 0.07 | 0.07 | 80 | 1007.0 |
| 20260830165006 | 78 | 67 | 4.0 | 12.0 | 0.00 | 0.07 | 0.07 | 83 | 1007.1 |
| 20260830164546 | 78 | 63 | 6.0 | 12.0 | 0.00 | 0.07 | 0.07 | 82 | 1002.8 |
| 20260830164513 | 78 | 35 | 6.0 | 12.0 | 0.00 | 0.07 | 0.07 | 81 | 1007.3 |
| 20260830164009 | 77 | 51 | 6.0 | 12.0 | 0.00 | 0.07 | 0.07 | 82 | 1007.4 |
| 20260830163508 | 78 | 43 | 7.0 | 13.0 | 0.00 | 0.07 | 0.07 | 81 | 1007.3 |
| 20260830163050 | 78 | 59 | 7.0 | 13.0 | 0.00 | 0.07 | 0.07 | 80 | 1003.0 |
| 20260830163026 | 78 | 59 | 9.0 | 13.0 | 0.00 | 0.07 | 0.07 | 80 | 1007.3 |
| 20260830162512 | 78 | 61 | 5.0 | 10.0 | 0.00 | 0.07 | 0.07 | 81 | 1007.3 |
| 20260830162011 | 77 | 62 | 4.0 | 10.0 | 0.00 | 0.07 | 0.07 | 81 | 1007.4 |
| 20260830161541 | 77 | 46 | 5.0 | 8.0 | 0.00 | 0.07 | 0.07 | 82 | 1003.2 |
| 20260830161526 | 77 | 49 | 4.0 | 8.0 | 0.00 | 0.07 | 0.07 | 82 | 1007.4 |
| 20260830161012 | 77 | 58 | 5.0 | 8.0 | 0.00 | 0.07 | 0.07 | 82 | 1007.5 |
| 20260830160513 | 76 | 108 | 2.0 | 8.0 | 0.00 | 0.07 | 0.07 | 84 | 1007.5 |
| 20260830160053 | 76 | 54 | 3.0 | 8.0 | 0.00 | 0.07 | 0.07 | 84 | 1003.3 |
| 20260830160035 | 76 | 65 | 4.0 | 8.0 | 0.00 | 0.07 | 0.07 | 84 | 1007.5 |
| 20260830155517 | 76 | 46 | 2.0 | 9.0 | 0.00 | 0.07 | 0.07 | 84 | 1007.5 |
| 20260830155016 | 76 | 68 | 4.0 | 9.0 | 0.00 | 0.07 | 0.07 | 84 | 1007.4 |
| 20260830154533 | 75 | 32 | 3.0 | 9.0 | 0.00 | 0.07 | 0.07 | 84 | 1003.2 |
| 20260830154518 | 75 | 49 | 3.0 | 9.0 | 0.00 | 0.07 | 0.07 | 84 | 1007.4 |
| 20260830154007 | 75 | 115 | 5.0 | 9.0 | 0.00 | 0.07 | 0.07 | 84 | 1007.4 |
| 20260830153508 | 75 | 69 | 2.0 | 8.0 | 0.00 | 0.07 | 0.07 | 85 | 1007.4 |
| 20260830153031 | 75 | 68 | 3.0 | 8.0 | 0.00 | 0.07 | 0.07 | 85 | 1003.1 |
| 20260830153016 | 75 | 52 | 3.0 | 9.0 | 0.00 | 0.07 | 0.07 | 84 | 1007.4 |
| 20260830152511 | 75 | 49 | 6.0 | 9.0 | 0.00 | 0.07 | 0.07 | 84 | 1007.4 |
| 20260830152007 | 74 | 60 | 6.0 | 9.0 | 0.00 | 0.07 | 0.07 | 85 | 1007.3 |
| 20260830151529 | 74 | 46 | 4.0 | 9.0 | 0.00 | 0.07 | 0.07 | 87 | 1003.1 |
| 20260830151523 | 74 | 41 | 5.0 | 9.0 | 0.00 | 0.07 | 0.07 | 86 | 1007.4 |
| 20260830151013 | 74 | 18 | 6.0 | 9.0 | 0.00 | 0.07 | 0.07 | 86 | 1007.3 |
| 20260830150510 | 74 | 64 | 4.0 | 8.0 | 0.00 | 0.07 | 0.07 | 86 | 1007.2 |
| 20260830150037 | 74 | 68 | 4.0 | 8.0 | 0.00 | 0.07 | 0.07 | 86 | 1007.3 |
| 20260830150027 | 74 | 37 | 4.0 | 8.0 | 0.00 | 0.07 | 0.07 | 87 | 1003.0 |
| 20260830145512 | 74 | 58 | 4.0 | 10.0 | 0.00 | 0.07 | 0.07 | 86 | 1007.2 |
| 20260830145014 | 74 | 67 | 5.0 | 10.0 | 0.00 | 0.07 | 0.07 | 86 | 1007.3 |
| 20260830144536 | 73 | 68 | 6.0 | 9.0 | 0.00 | 0.07 | 0.07 | 86 | 1007.4 |
| 20260830144525 | 73 | 46 | 5.0 | 9.0 | 0.00 | 0.07 | 0.07 | 87 | 1003.2 |
| 20260830144017 | 73 | 80 | 6.0 | 9.0 | 0.00 | 0.07 | 0.07 | 87 | 1007.3 |
| 20260830143516 | 73 | 61 | 4.0 | 11.0 | 0.00 | 0.07 | 0.07 | 88 | 1007.3 |
| 20260830143024 | 73 | 61 | 5.0 | 11.0 | 0.00 | 0.07 | 0.07 | 89 | 1003.1 |
| 20260830143019 | 73 | 96 | 6.0 | 11.0 | 0.00 | 0.07 | 0.07 | 88 | 1007.2 |
| 20260830142507 | 72 | 67 | 6.0 | 11.0 | 0.00 | 0.07 | 0.07 | 88 | 1007.3 |
| 20260830142010 | 72 | 62 | 5.0 | 10.0 | 0.00 | 0.07 | 0.07 | 89 | 1007.5 |
| 20260830141531 | 72 | 52 | 6.0 | 10.0 | 0.00 | 0.07 | 0.07 | 89 | 1003.2 |
| 20260830141518 | 72 | 49 | 6.0 | 9.0 | 0.00 | 0.07 | 0.07 | 89 | 1007.5 |
| 20260830141009 | 71 | 63 | 4.0 | 11.0 | 0.00 | 0.07 | 0.07 | 90 | 1007.5 |
| 20260830140508 | 71 | 49 | 7.0 | 11.0 | 0.00 | 0.07 | 0.07 | 90 | 1007.4 |
| 20260830140028 | 71 | 60 | 9.0 | 11.0 | 0.00 | 0.07 | 0.07 | 89 | 1007.5 |
| 20260830140020 | 71 | 46 | 8.0 | 11.0 | 0.00 | 0.07 | 0.07 | 90 | 1003.3 |
| 20260830135512 | 71 | 57 | 4.0 | 9.0 | 0.00 | 0.07 | 0.07 | 91 | 1007.6 |
| 20260830135015 | 71 | 45 | 5.0 | 10.0 | 0.00 | 0.07 | 0.07 | 91 | 1007.6 |
| 20260830134530 | 70 | 58 | 4.0 | 10.0 | 0.00 | 0.07 | 0.07 | 92 | 1003.5 |
| 20260830134015 | 70 | 30 | 5.0 | 10.0 | 0.00 | 0.07 | 0.07 | 92 | 1007.7 |
| 20260830133515 | 70 | 58 | 7.0 | 10.0 | 0.00 | 0.07 | 0.07 | 91 | 1007.7 |
| 20260830133032 | 70 | 61 | 4.0 | 9.0 | 0.00 | 0.07 | 0.07 | 92 | 1007.8 |
| 20260830133022 | 70 | 51 | 4.0 | 9.0 | 0.00 | 0.07 | 0.07 | 93 | 1003.7 |
| 20260830132519 | 69 | 25 | 4.0 | 9.0 | 0.00 | 0.07 | 0.07 | 92 | 1007.8 |
| 20260830132018 | 69 | 33 | 3.0 | 8.0 | 0.00 | 0.07 | 0.07 | 93 | 1008.0 |
| 20260830131529 | 69 | 23 | 4.0 | 8.0 | 0.00 | 0.07 | 0.07 | 93 | 1007.9 |
| 20260830131518 | 69 | 53 | 3.0 | 8.0 | 0.00 | 0.07 | 0.07 | 93 | 1003.8 |
| 20260830131007 | 69 | 55 | 3.0 | 8.0 | 0.00 | 0.07 | 0.07 | 93 | 1007.8 |
| 20260830130512 | 69 | 32 | 5.0 | 8.0 | 0.00 | 0.07 | 0.07 | 92 | 1007.7 |
| 20260830130024 | 69 | 326 | 2.0 | 6.0 | 0.00 | 0.07 | 0.07 | 92 | 1007.9 |
| 20260830130017 | 69 | 335 | 1.0 | 6.0 | 0.00 | 0.07 | 0.07 | 93 | 1003.9 |
| 20260830125511 | 69 | 345 | 2.0 | 8.0 | 0.00 | 0.07 | 0.07 | 93 | 1007.8 |
| 20260830125014 | 68 | 35 | 3.0 | 8.0 | 0.00 | 0.07 | 0.07 | 93 | 1008.0 |
| 20260830124536 | 68 | 17 | 5.0 | 7.0 | 0.00 | 0.07 | 0.07 | 93 | 1008.0 |
| 20260830124516 | 68 | 18 | 5.0 | 8.0 | 0.00 | 0.07 | 0.07 | 93 | 1003.9 |
| 20260830124018 | 68 | 342 | 2.0 | 7.0 | 0.00 | 0.07 | 0.07 | 93 | 1008.0 |
| 20260830123515 | 68 | 29 | 4.0 | 7.0 | 0.00 | 0.07 | 0.07 | 94 | 1008.0 |
| 20260830123030 | 68 | 338 | 3.0 | 4.0 | 0.00 | 0.07 | 0.07 | 94 | 1008.0 |
| 20260830123016 | 68 | 353 | 2.0 | 4.0 | 0.00 | 0.07 | 0.07 | 94 | 1003.9 |
| 20260830122517 | 68 | 43 | 2.0 | 4.0 | 0.00 | 0.07 | 0.07 | 94 | 1008.0 |
| 20260830122015 | 68 | 319 | 1.0 | 4.0 | 0.00 | 0.07 | 0.07 | 93 | 1007.9 |
| 20260830121532 | 68 | 331 | 1.0 | 4.0 | 0.00 | 0.07 | 0.07 | 94 | 1003.8 |
| 20260830121013 | 68 | 314 | 1.0 | 2.0 | 0.00 | 0.07 | 0.07 | 93 | 1007.7 |
| 20260830120519 | 68 | 336 | 0.0 | 1.0 | 0.00 | 0.07 | 0.07 | 93 | 1007.6 |
| 20260830120024 | 68 | 68 | 0.0 | 2.0 | 0.00 | 0.07 | 0.07 | 93 | 1007.6 |
| 20260830120012 | 68 | 68 | 0.0 | 1.0 | 0.00 | 0.07 | 0.07 | 94 | 1003.6 |
| 20260830115510 | 68 | 68 | 0.0 | 2.0 | 0.00 | 0.07 | 0.07 | 93 | 1007.4 |
| 20260830115013 | 68 | 68 | 1.0 | 2.0 | 0.01 | 0.07 | 0.07 | 93 | 1007.4 |
| 20260830114527 | 68 | 69 | 0.0 | 2.0 | 0.01 | 0.07 | 0.07 | 93 | 1007.4 |
| 20260830114511 | 68 | 69 | 0.0 | 2.0 | 0.01 | 0.07 | 0.07 | 94 | 1003.4 |
| 20260830114014 | 68 | 69 | 0.0 | 1.0 | 0.01 | 0.07 | 0.07 | 93 | 1007.4 |
| 20260830113512 | 69 | 69 | 0.0 | 2.0 | 0.01 | 0.07 | 0.07 | 93 | 1007.1 |
| 20260830113026 | 69 | 68 | 0.0 | 2.0 | 0.01 | 0.07 | 0.07 | 93 | 1007.1 |
| 20260830113010 | 69 | 68 | 0.0 | 2.0 | 0.01 | 0.07 | 0.07 | 93 | 1003.1 |
| 20260830112514 | 69 | 68 | 0.0 | 2.0 | 0.01 | 0.07 | 0.07 | 93 | 1007.0 |
| 20260830112016 | 69 | 68 | 1.0 | 2.0 | 0.01 | 0.07 | 0.07 | 93 | 1007.0 |
| 20260830111531 | 69 | 63 | 2.0 | 2.0 | 0.01 | 0.07 | 0.07 | 93 | 1006.9 |
| 20260830111510 | 69 | 63 | 1.0 | 2.0 | 0.01 | 0.07 | 0.07 | 93 | 1002.7 |
| 20260830111016 | 69 | 96 | 1.0 | 4.0 | 0.01 | 0.07 | 0.07 | 93 | 1006.9 |
| 20260830110514 | 69 | 86 | 1.0 | 5.0 | 0.01 | 0.07 | 0.07 | 93 | 1006.8 |
| 20260830110034 | 69 | 71 | 2.0 | 5.0 | 0.01 | 0.07 | 0.07 | 93 | 1006.8 |
| 20260830110010 | 69 | 94 | 1.0 | 5.0 | 0.01 | 0.07 | 0.07 | 93 | 1002.7 |
| 20260830105520 | 69 | 113 | 1.0 | 3.0 | 0.01 | 0.07 | 0.07 | 93 | 1006.8 |
| 20260830105019 | 69 | 124 | 1.0 | 3.0 | 0.00 | 0.06 | 0.06 | 93 | 1006.9 |
| 20260830104522 | 69 | 80 | 1.0 | 3.0 | 0.00 | 0.06 | 0.06 | 93 | 1006.9 |
| 20260830104508 | 69 | 80 | 1.0 | 3.0 | 0.00 | 0.06 | 0.06 | 93 | 1002.8 |
| 20260830104011 | 69 | 50 | 2.0 | 3.0 | 0.00 | 0.06 | 0.06 | 93 | 1006.9 |
| 20260830103515 | 69 | 95 | 1.0 | 3.0 | 0.00 | 0.06 | 0.06 | 93 | 1007.0 |
| 20260830103014 | 69 | 76 | 1.0 | 3.0 | 0.00 | 0.06 | 0.06 | 93 | 1002.8 |
| 20260830103004 | 69 | 76 | 1.0 | 3.0 | 0.00 | 0.06 | 0.06 | 93 | 1007.0 |
| 20260830102503 | 69 | 72 | 1.0 | 3.0 | 0.00 | 0.06 | 0.06 | 93 | 1006.9 |
| 20260830102003 | 69 | 65 | 1.0 | 5.0 | 0.00 | 0.06 | 0.06 | 93 | 1006.8 |
| 20260830101506 | 69 | 63 | 2.0 | 5.0 | 0.00 | 0.06 | 0.06 | 93 | 1006.8 |
| 20260830101002 | 69 | 51 | 2.0 | 5.0 | 0.00 | 0.06 | 0.06 | 93 | 1006.8 |
| 20260830100506 | 69 | 58 | 3.0 | 6.0 | 0.00 | 0.06 | 0.06 | 93 | 1006.9 |
| 20260830100026 | 69 | 53 | 3.0 | 6.0 | 0.00 | 0.06 | 0.06 | 93 | 1007.0 |
| 20260830100006 | 69 | 54 | 2.0 | 6.0 | 0.00 | 0.06 | 0.06 | 93 | 1002.9 |
| 20260830095509 | 69 | 77 | 3.0 | 6.0 | 0.00 | 0.06 | 0.06 | 92 | 1007.0 |
| 20260830095008 | 69 | 96 | 3.0 | 5.0 | 0.00 | 0.06 | 0.06 | 92 | 1006.9 |
| 20260830094520 | 69 | 112 | 2.0 | 4.0 | 0.00 | 0.06 | 0.06 | 92 | 1007.0 |
| 20260830094504 | 69 | 104 | 2.0 | 4.0 | 0.00 | 0.06 | 0.06 | 93 | 1002.8 |
| 20260830094006 | 69 | 94 | 2.0 | 4.0 | 0.00 | 0.06 | 0.06 | 92 | 1007.1 |
| 20260830093510 | 69 | 101 | 2.0 | 4.0 | 0.00 | 0.06 | 0.06 | 92 | 1007.3 |
| 20260830093047 | 69 | 93 | 1.0 | 4.0 | 0.00 | 0.06 | 0.06 | 92 | 1007.3 |
| 20260830093001 | 69 | 93 | 1.0 | 4.0 | 0.00 | 0.06 | 0.06 | 93 | 1003.1 |
| 20260830092512 | 70 | 122 | 1.0 | 5.0 | 0.00 | 0.06 | 0.06 | 92 | 1007.5 |
| 20260830092014 | 70 | 137 | 2.0 | 5.0 | 0.00 | 0.06 | 0.06 | 92 | 1007.6 |
| 20260830091558 | 70 | 126 | 1.0 | 4.0 | 0.00 | 0.06 | 0.06 | 92 | 1003.5 |
| 20260830091504 | 70 | 96 | 2.0 | 5.0 | 0.00 | 0.06 | 0.06 | 92 | 1007.7 |
| 20260830091004 | 70 | 133 | 1.0 | 5.0 | 0.00 | 0.06 | 0.06 | 92 | 1008.0 |
| 20260830090502 | 70 | 92 | 1.0 | 5.0 | 0.00 | 0.06 | 0.06 | 92 | 1008.0 |
| 20260830090105 | 70 | 114 | 1.0 | 4.0 | 0.01 | 0.06 | 0.06 | 92 | 1004.0 |
| 20260830090009 | 70 | 115 | 2.0 | 4.0 | 0.01 | 0.06 | 0.06 | 92 | 1008.2 |
| 20260830085503 | 70 | 146 | 1.0 | 4.0 | 0.01 | 0.06 | 0.06 | 92 | 1008.2 |
| 20260830085006 | 71 | 145 | 2.0 | 4.0 | 0.01 | 0.06 | 0.06 | 92 | 1008.2 |
| 20260830084555 | 71 | 146 | 2.0 | 3.0 | 0.02 | 0.06 | 0.06 | 93 | 1004.2 |
| 20260830084516 | 71 | 132 | 2.0 | 3.0 | 0.02 | 0.06 | 0.06 | 92 | 1008.3 |
| 20260830084007 | 71 | 146 | 1.0 | 2.0 | 0.04 | 0.06 | 0.06 | 92 | 1008.4 |
| 20260830083508 | 71 | 93 | 1.0 | 3.0 | 0.05 | 0.06 | 0.06 | 92 | 1008.5 |
| 20260830083054 | 71 | 40 | 2.0 | 3.0 | 0.05 | 0.06 | 0.06 | 92 | 1004.6 |
| 20260830083017 | 71 | 27 | 2.0 | 3.0 | 0.05 | 0.06 | 0.06 | 92 | 1008.8 |
| 20260830082511 | 71 | 266 | 0.0 | 2.0 | 0.05 | 0.06 | 0.06 | 91 | 1009.3 |
| 20260830082012 | 71 | 259 | 0.0 | 0.0 | 0.06 | 0.06 | 0.06 | 91 | 1009.3 |
| 20260830081553 | 71 | 158 | 0.0 | 0.0 | 0.06 | 0.06 | 0.06 | 92 | 1004.6 |
| 20260830081526 | 71 | 158 | 0.0 | 0.0 | 0.06 | 0.06 | 0.06 | 91 | 1008.8 |
| 20260830081010 | 71 | 70 | 0.0 | 1.0 | 0.06 | 0.06 | 0.06 | 91 | 1008.8 |
| 20260830080515 | 71 | 70 | 0.0 | 2.0 | 0.06 | 0.06 | 0.06 | 91 | 1008.8 |
| 20260830080052 | 71 | 58 | 0.0 | 2.0 | 0.05 | 0.05 | 0.05 | 92 | 1004.7 |
| 20260830080007 | 71 | 58 | 0.0 | 4.0 | 0.05 | 0.05 | 0.05 | 91 | 1008.9 |
| 20260830075503 | 71 | 58 | 1.0 | 5.0 | 0.05 | 0.05 | 0.05 | 91 | 1008.9 |
| 20260830075002 | 71 | 344 | 3.0 | 5.0 | 0.05 | 0.05 | 0.05 | 91 | 1009.0 |
| 20260830074553 | 71 | 44 | 2.0 | 4.0 | 0.04 | 0.04 | 0.04 | 91 | 1004.7 |
| 20260830074509 | 71 | 27 | 2.0 | 4.0 | 0.04 | 0.04 | 0.04 | 90 | 1009.0 |
| 20260830074009 | 71 | 253 | 0.0 | 3.0 | 0.02 | 0.02 | 0.02 | 89 | 1009.6 |
| 20260830073507 | 72 | 263 | 1.0 | 6.0 | 0.01 | 0.01 | 0.01 | 89 | 1009.2 |
| 20260830073051 | 72 | 63 | 1.0 | 8.0 | 0.01 | 0.01 | 0.01 | 89 | 1004.2 |
| 20260830073018 | 72 | 84 | 1.0 | 8.0 | 0.01 | 0.01 | 0.01 | 89 | 1008.3 |
| 20260830072509 | 72 | 49 | 4.0 | 8.0 | 0.01 | 0.01 | 0.01 | 88 | 1007.9 |
| 20260830072008 | 72 | 39 | 4.0 | 8.0 | 0.00 | 0.00 | 0.00 | 88 | 1007.8 |
| 20260830071545 | 72 | 69 | 4.0 | 7.0 | 0.00 | 0.00 | 0.00 | 88 | 1003.7 |
| 20260830071530 | 72 | 59 | 4.0 | 7.0 | 0.00 | 0.00 | 0.00 | 87 | 1007.9 |
| 20260830071015 | 72 | 86 | 3.0 | 7.0 | 0.00 | 0.00 | 0.00 | 87 | 1008.1 |
| 20260830070512 | 72 | 98 | 3.0 | 8.0 | 0.00 | 0.00 | 0.00 | 87 | 1008.2 |
| 20260830070043 | 72 | 99 | 2.0 | 8.0 | 0.00 | 0.00 | 0.00 | 88 | 1004.0 |
| 20260830070028 | 72 | 124 | 2.0 | 8.0 | 0.00 | 0.00 | 0.00 | 87 | 1008.2 |
| 20260830065512 | 72 | 68 | 5.0 | 8.0 | 0.00 | 0.00 | 0.00 | 87 | 1008.1 |
| 20260830065013 | 72 | 28 | 2.0 | 7.0 | 0.00 | 0.00 | 0.00 | 88 | 1008.2 |
| 20260830064543 | 72 | 118 | 1.0 | 7.0 | 0.00 | 0.00 | 0.00 | 88 | 1004.0 |
| 20260830064508 | 72 | 89 | 1.0 | 7.0 | 0.00 | 0.00 | 0.00 | 88 | 1008.2 |
| 20260830064003 | 72 | 109 | 3.0 | 7.0 | 0.00 | 0.00 | 0.00 | 88 | 1008.1 |
| 20260830063506 | 72 | 101 | 3.0 | 6.0 | 0.00 | 0.00 | 0.00 | 88 | 1008.0 |
| 20260830063046 | 72 | 106 | 1.0 | 5.0 | 0.00 | 0.00 | 0.00 | 89 | 1004.2 |
| 20260830063012 | 72 | 104 | 1.0 | 5.0 | 0.00 | 0.00 | 0.00 | 88 | 1008.5 |
| 20260830062507 | 72 | 145 | 2.0 | 5.0 | 0.00 | 0.00 | 0.00 | 88 | 1008.6 |
| 20260830062008 | 72 | 134 | 2.0 | 9.0 | 0.00 | 0.00 | 0.00 | 88 | 1008.5 |
| 20260830061555 | 72 | 137 | 4.0 | 9.0 | 0.00 | 0.00 | 0.00 | 88 | 1004.0 |
| 20260830061517 | 72 | 103 | 4.0 | 9.0 | 0.00 | 0.00 | 0.00 | 88 | 1008.3 |
| 20260830061009 | 72 | 55 | 4.0 | 9.0 | 0.00 | 0.00 | 0.00 | 88 | 1008.3 |
| 20260830060510 | 72 | 102 | 5.0 | 10.0 | 0.00 | 0.00 | 0.00 | 88 | 1008.5 |
| 20260830060038 | 72 | 122 | 4.0 | 10.0 | 0.00 | 0.00 | 0.00 | 88 | 1004.4 |
| 20260830060024 | 72 | 98 | 4.0 | 10.0 | 0.00 | 0.00 | 0.00 | 88 | 1008.7 |
| 20260830055511 | 72 | 111 | 4.0 | 8.0 | 0.00 | 0.00 | 0.00 | 88 | 1008.9 |
| 20260830055015 | 72 | 49 | 3.0 | 9.0 | 0.00 | 0.00 | 0.00 | 88 | 1008.8 |
| 20260830054544 | 72 | 97 | 2.0 | 9.0 | 0.00 | 0.00 | 0.00 | 89 | 1004.7 |
| 20260830054529 | 72 | 78 | 3.0 | 9.0 | 0.00 | 0.00 | 0.00 | 89 | 1008.9 |
| 20260830054019 | 72 | 75 | 3.0 | 7.0 | 0.00 | 0.00 | 0.00 | 89 | 1008.9 |
| 20260830053516 | 72 | 91 | 2.0 | 9.0 | 0.00 | 0.00 | 0.00 | 88 | 1009.0 |
| 20260830053033 | 72 | 96 | 3.0 | 9.0 | 0.00 | 0.00 | 0.00 | 89 | 1004.8 |
| 20260830053008 | 72 | 137 | 4.0 | 9.0 | 0.00 | 0.00 | 0.00 | 88 | 1009.0 |
| 20260830052503 | 72 | 116 | 4.0 | 7.0 | 0.00 | 0.00 | 0.00 | 88 | 1009.1 |
| 20260830052004 | 72 | 116 | 3.0 | 7.0 | 0.00 | 0.00 | 0.00 | 88 | 1009.3 |
| 20260830051530 | 72 | 53 | 2.0 | 7.0 | 0.00 | 0.00 | 0.00 | 89 | 1004.9 |
| 20260830051514 | 72 | 154 | 2.0 | 10.0 | 0.00 | 0.00 | 0.00 | 88 | 1009.1 |
| 20260830051009 | 72 | 100 | 3.0 | 10.0 | 0.00 | 0.00 | 0.00 | 88 | 1008.7 |
| 20260830050507 | 72 | 96 | 3.0 | 9.0 | 0.00 | 0.00 | 0.00 | 88 | 1008.6 |
| 20260830050027 | 72 | 114 | 3.0 | 9.0 | 0.00 | 0.00 | 0.00 | 89 | 1004.3 |
| 20260830050020 | 72 | 77 | 3.0 | 9.0 | 0.00 | 0.00 | 0.00 | 88 | 1008.7 |
| 20260830045514 | 72 | 109 | 3.0 | 6.0 | 0.00 | 0.00 | 0.00 | 88 | 1008.9 |
| 20260830045009 | 72 | 87 | 2.0 | 5.0 | 0.00 | 0.00 | 0.00 | 88 | 1008.9 |
| 20260830044547 | 72 | 100 | 2.0 | 5.0 | 0.00 | 0.00 | 0.00 | 88 | 1009.0 |
| 20260830044524 | 72 | 62 | 2.0 | 5.0 | 0.00 | 0.00 | 0.00 | 89 | 1004.7 |
| 20260830044014 | 72 | 58 | 4.0 | 5.0 | 0.00 | 0.00 | 0.00 | 88 | 1009.1 |
| 20260830043514 | 72 | 56 | 2.0 | 3.0 | 0.00 | 0.00 | 0.00 | 88 | 1009.2 |
| 20260830043030 | 73 | 49 | 1.0 | 3.0 | 0.00 | 0.00 | 0.00 | 88 | 1009.3 |
| 20260830043023 | 73 | 101 | 1.0 | 2.0 | 0.00 | 0.00 | 0.00 | 88 | 1005.1 |
| 20260830042515 | 73 | 62 | 0.0 | 3.0 | 0.00 | 0.00 | 0.00 | 87 | 1009.3 |
| 20260830042013 | 73 | 22 | 2.0 | 3.0 | 0.00 | 0.00 | 0.00 | 87 | 1009.3 |
| 20260830041524 | 73 | 48 | 1.0 | 3.0 | 0.00 | 0.00 | 0.00 | 87 | 1005.3 |
| 20260830041517 | 73 | 36 | 1.0 | 3.0 | 0.00 | 0.00 | 0.00 | 87 | 1009.4 |
| 20260830041010 | 73 | 111 | 1.0 | 4.0 | 0.00 | 0.00 | 0.00 | 87 | 1009.5 |
| 20260830040505 | 73 | 47 | 1.0 | 4.0 | 0.00 | 0.00 | 0.00 | 86 | 1009.5 |
| 20260830040023 | 73 | 65 | 2.0 | 4.0 | 0.00 | 0.00 | 0.00 | 87 | 1005.5 |
| 20260830040020 | 73 | 70 | 2.0 | 4.0 | 0.00 | 0.00 | 0.00 | 86 | 1009.6 |
| 20260830035508 | 74 | 102 | 2.0 | 7.0 | 0.00 | 0.00 | 0.00 | 86 | 1009.4 |
| 20260830035011 | 74 | 113 | 2.0 | 8.0 | 0.00 | 0.00 | 0.00 | 86 | 1009.3 |
| 20260830034526 | 74 | 52 | 4.0 | 8.0 | 0.00 | 0.00 | 0.00 | 86 | 1009.0 |
| 20260830034522 | 74 | 60 | 3.0 | 8.0 | 0.00 | 0.00 | 0.00 | 86 | 1004.8 |
| 20260830034011 | 74 | 72 | 4.0 | 11.0 | 0.00 | 0.00 | 0.00 | 86 | 1008.8 |
| 20260830033513 | 74 | 115 | 6.0 | 11.0 | 0.00 | 0.00 | 0.00 | 86 | 1009.0 |
| 20260830033020 | 74 | 103 | 3.0 | 6.0 | 0.00 | 0.00 | 0.00 | 86 | 1005.0 |
| 20260830033004 | 74 | 117 | 3.0 | 6.0 | 0.00 | 0.00 | 0.00 | 86 | 1009.3 |
| 20260830032503 | 74 | 86 | 2.0 | 6.0 | 0.00 | 0.00 | 0.00 | 85 | 1009.5 |
| 20260830032003 | 74 | 61 | 3.0 | 6.0 | 0.00 | 0.00 | 0.00 | 85 | 1009.6 |
| 20260830031520 | 74 | 70 | 2.0 | 5.0 | 0.00 | 0.00 | 0.00 | 85 | 1005.5 |
| 20260830031510 | 74 | 108 | 2.0 | 5.0 | 0.00 | 0.00 | 0.00 | 85 | 1009.8 |
| 20260830031004 | 74 | 130 | 3.0 | 5.0 | 0.00 | 0.00 | 0.00 | 85 | 1009.8 |
| 20260830030504 | 74 | 66 | 2.0 | 4.0 | 0.00 | 0.00 | 0.00 | 85 | 1009.6 |
| 20260830030019 | 75 | 78 | 1.0 | 6.0 | 0.00 | 0.00 | 0.00 | 85 | 1005.6 |
| 20260830030011 | 75 | 79 | 2.0 | 6.0 | 0.00 | 0.00 | 0.00 | 84 | 1009.9 |
| 20260830025508 | 75 | 56 | 3.0 | 6.0 | 0.00 | 0.00 | 0.00 | 84 | 1010.0 |
| 20260830025005 | 75 | 60 | 3.0 | 6.0 | 0.00 | 0.00 | 0.00 | 83 | 1010.1 |
| 20260830024520 | 75 | 114 | 2.0 | 6.0 | 0.00 | 0.00 | 0.00 | 83 | 1009.8 |
| 20260830024009 | 75 | 58 | 1.0 | 6.0 | 0.00 | 0.00 | 0.00 | 83 | 1009.7 |
| 20260830023512 | 75 | 68 | 2.0 | 6.0 | 0.00 | 0.00 | 0.00 | 83 | 1009.6 |
| 20260830023025 | 75 | 53 | 3.0 | 6.0 | 0.00 | 0.00 | 0.00 | 83 | 1009.5 |
| 20260830023020 | 75 | 74 | 3.0 | 6.0 | 0.00 | 0.00 | 0.00 | 83 | 1005.3 |
| 20260830022512 | 75 | 81 | 2.0 | 6.0 | 0.00 | 0.00 | 0.00 | 82 | 1009.6 |
| 20260830022012 | 76 | 47 | 4.0 | 6.0 | 0.00 | 0.00 | 0.00 | 82 | 1009.7 |
| 20260830021518 | 76 | 60 | 1.0 | 6.0 | 0.00 | 0.00 | 0.00 | 83 | 1005.5 |
| 20260830021512 | 76 | 58 | 2.0 | 6.0 | 0.00 | 0.00 | 0.00 | 82 | 1009.7 |
| 20260830021002 | 76 | 103 | 3.0 | 9.0 | 0.00 | 0.00 | 0.00 | 82 | 1009.5 |
| 20260830020506 | 76 | 127 | 3.0 | 9.0 | 0.00 | 0.00 | 0.00 | 83 | 1009.5 |
| 20260830020019 | 75 | 109 | 2.0 | 6.0 | 0.00 | 0.00 | 0.00 | 84 | 1005.0 |
| 20260830020009 | 75 | 63 | 2.0 | 6.0 | 0.00 | 0.00 | 0.00 | 84 | 1009.3 |
| 20260830015505 | 76 | 102 | 2.0 | 7.0 | 0.00 | 0.00 | 0.00 | 84 | 1009.2 |
| 20260830015008 | 76 | 54 | 3.0 | 7.0 | 0.00 | 0.00 | 0.00 | 84 | 1009.0 |
| 20260830014517 | 76 | 56 | 3.0 | 6.0 | 0.00 | 0.00 | 0.00 | 84 | 1004.6 |
| 20260830014009 | 76 | 38 | 4.0 | 6.0 | 0.00 | 0.00 | 0.00 | 83 | 1009.0 |
| 20260830013509 | 76 | 60 | 4.0 | 8.0 | 0.00 | 0.00 | 0.00 | 83 | 1008.9 |
| 20260830013052 | 76 | 58 | 4.0 | 8.0 | 0.00 | 0.00 | 0.00 | 82 | 1008.8 |
| 20260830013017 | 76 | 67 | 3.0 | 8.0 | 0.00 | 0.00 | 0.00 | 83 | 1004.3 |
| 20260830012510 | 77 | 46 | 4.0 | 8.0 | 0.00 | 0.00 | 0.00 | 82 | 1008.8 |
| 20260830012011 | 77 | 61 | 3.0 | 9.0 | 0.00 | 0.00 | 0.00 | 82 | 1008.9 |
| 20260830011541 | 77 | 65 | 5.0 | 9.0 | 0.00 | 0.00 | 0.00 | 82 | 1008.7 |
| 20260830011527 | 77 | 124 | 4.0 | 9.0 | 0.00 | 0.00 | 0.00 | 82 | 1004.4 |
| 20260830011014 | 77 | 53 | 3.0 | 6.0 | 0.00 | 0.00 | 0.00 | 82 | 1008.6 |
| 20260830010516 | 77 | 28 | 4.0 | 6.0 | 0.00 | 0.00 | 0.00 | 81 | 1008.5 |
| 20260830010015 | 77 | 58 | 3.0 | 6.0 | 0.00 | 0.00 | 0.00 | 81 | 1004.2 |
| 20260830010007 | 77 | 43 | 3.0 | 8.0 | 0.00 | 0.00 | 0.00 | 81 | 1008.5 |
| 20260830005504 | 77 | 49 | 3.0 | 9.0 | 0.00 | 0.00 | 0.00 | 80 | 1008.5 |
| 20260830005003 | 78 | 57 | 6.0 | 9.0 | 0.00 | 0.00 | 0.00 | 80 | 1008.2 |
| 20260830004532 | 78 | 47 | 5.0 | 9.0 | 0.00 | 0.00 | 0.00 | 80 | 1003.6 |
| 20260830004515 | 78 | 63 | 6.0 | 9.0 | 0.00 | 0.00 | 0.00 | 79 | 1008.0 |